0 IRIDIUM 7 1 24793U 97020B 25188.03753429 .00000277 00000-0 88576-4 0 9994 2 24793 86.3990 168.5981 0002539 84.0000 276.1486 14.35949769474748 0 IRIDIUM 5 1 24795U 97020D 25188.73230850 .00003181 00000-0 25788-3 0 9993 2 24795 86.3875 74.2579 0110931 65.1995 296.0724 14.94494823488569 0 IRIDIUM 4 1 24796U 97020E 25188.84421075 .00000256 00000-0 80124-4 0 9993 2 24796 86.3988 165.1272 0002429 88.5537 271.5938 14.36852558475467 0 IRIDIUM 914 1 24836U 97030A 25188.37284056 .00000351 00000-0 10339-3 0 9999 2 24836 86.3963 173.8604 0003326 114.4612 245.6935 14.40884496610034 0 IRIDIUM 16 1 24841U 97030F 25188.50211429 .00000272 00000-0 82194-4 0 9995 2 24841 86.4046 196.7436 0003204 45.1070 315.0387 14.38725095469922 0 IRIDIUM 911 1 24842U 97030G 25188.50747691 .00000410 00000-0 10555-3 0 9996 2 24842 86.4472 195.4897 0015540 37.5704 322.6582 14.47655127478028 0 IRIDIUM 17 1 24870U 97034B 25188.84983102 .00000280 00000-0 86442-4 0 9991 2 24870 86.3949 226.0643 0001424 46.9414 313.1903 14.37840176466551 0 IRIDIUM 920 1 24871U 97034C 25188.77014360 .00000303 00000-0 86913-4 0 9994 2 24871 86.3980 205.2874 0012355 24.5581 335.6205 14.41545820469802 0 IRIDIUM 26 1 24903U 97043A 25188.86507441 .00000250 00000-0 77556-4 0 9991 2 24903 86.3957 101.9377 0002320 80.5520 279.5939 14.37158249460180 0 IRIDIUM 22 1 24907U 97043E 25188.81199447 .00000237 00000-0 75032-4 0 9995 2 24907 86.3964 105.5176 0002158 83.6588 276.4855 14.35969190459720 0 IRIDIUM 29 1 24944U 97051A 25188.89725481 .00000286 00000-0 90708-4 0 9997 2 24944 86.3982 135.2145 0002172 90.3332 269.8114 14.36481320456462 0 IRIDIUM 33 1 24946U 97051C 25188.83206816 .00000245 00000-0 79187-4 0 9992 2 24946 86.3897 134.5037 0008716 25.8248 334.3382 14.34903064455714 0 IRIDIUM 28 1 24948U 97051E 25188.23129906 .00000314 00000-0 98541-4 0 9994 2 24948 86.3985 132.9987 0002527 75.7164 284.4314 14.37397558456725 0 IRIDIUM 36 1 24967U 97056C 25188.46993345 .00000304 00000-0 94680-4 0 9990 2 24967 86.3996 164.4826 0002130 82.3496 277.7943 14.37622290455133 0 IRIDIUM 39 1 25042U 97069D 25188.56661026 .00000409 00000-0 10175-3 0 9990 2 25042 86.3922 202.3973 0015855 234.6913 125.2809 14.49236080451917 0 IRIDIUM 38 1 25043U 97069E 25188.55559388 .00000298 00000-0 91750-4 0 9992 2 25043 86.3951 224.5878 0003711 64.4079 295.7502 14.38129376448882 0 IRIDIUM 42 1 25077U 97077A 25188.65647452 .00000257 00000-0 81057-4 0 9993 2 25077 86.3953 230.7397 0002921 81.7613 278.3915 14.36363561444137 0 IRIDIUM 44 1 25078U 97077B 25188.76411327 .00000272 00000-0 79786-4 0 9999 2 25078 86.3961 212.5692 0001834 38.1743 321.9586 14.40253208446698 0 IRIDIUM 45 1 25104U 97082A 25188.82350561 .00009480 00000-0 33693-3 0 9990 2 25104 86.3571 37.8659 0113118 253.9828 104.8934 15.22862221455435 0 IRIDIUM 24 1 25105U 97082B 25188.64135767 .00000346 00000-0 99099-4 0 9995 2 25105 86.3887 71.6243 0012161 20.7638 339.4054 14.42113746446167 0 IRIDIUM 51 1 25262U 98018A 25188.88627530 .00026162 00000-0 55948-3 0 9997 2 25262 86.3815 45.5738 0085155 168.8945 191.4217 15.40781521450432 0 IRIDIUM 57 1 25273U 98019B 25187.89337038 .00000252 00000-0 80262-4 0 9991 2 25273 86.3985 137.0085 0002325 84.3352 275.8110 14.35903392427614 0 IRIDIUM 63 1 25286U 98021B 25188.58850770 .00000256 00000-0 80370-4 0 9992 2 25286 86.3962 73.5730 0002067 89.6698 270.4736 14.36557337426774 0 IRIDIUM 69 1 25319U 98026A 25188.81632368 .00000353 00000-0 10370-3 0 9991 2 25319 86.3963 86.7064 0001973 16.4917 343.6347 14.40983810426275 0 IRIDIUM 71 1 25320U 98026B 25188.75102561 .00000292 00000-0 84286-4 0 9993 2 25320 86.3959 81.4206 0003597 52.6302 307.5224 14.41171428426803 0 IRIDIUM 73 1 25344U 98032C 25188.87809667 .00000372 00000-0 87456-4 0 9991 2 25344 86.4398 38.0261 0001598 81.9993 278.1394 14.51731580433863 0 IRIDIUM 82 1 25467U 98051A 25187.81046659 .00016764 00000-0 47131-3 0 9992 2 25467 86.3668 100.0847 0081707 220.2368 139.2818 15.32993448426966 0 IRIDIUM 106 1 41917U 17003A 25188.85761807 .00000055 00000-0 12540-4 0 9995 2 41917 86.3960 232.3650 0001922 84.5525 275.5890 14.34217869443855 0 IRIDIUM 103 1 41918U 17003B 25188.56586078 .00000025 00000-0 20059-5 0 9991 2 41918 86.3959 232.3876 0002725 81.6649 278.4855 14.34217650443830 0 IRIDIUM 109 1 41919U 17003C 25188.57220215 .00000086 00000-0 23712-4 0 9996 2 41919 86.3961 232.4389 0002525 92.8251 267.3234 14.34218159443805 0 IRIDIUM 102 1 41920U 17003D 25188.61025766 .00000057 00000-0 13447-4 0 9999 2 41920 86.3957 232.3535 0002370 95.4904 264.6562 14.34217725443897 0 IRIDIUM 105 1 41921U 17003E 25188.58099156 .00000133 00000-0 40533-4 0 9991 2 41921 86.3984 200.8388 0002462 86.4509 273.6968 14.34217601445746 0 IRIDIUM 104 1 41922U 17003F 25188.55317504 .00000069 00000-0 17748-4 0 9999 2 41922 86.3961 232.4151 0002758 92.0961 268.0551 14.34217669443876 0 IRIDIUM 114 1 41923U 17003G 25188.62928405 .00000182 00000-0 57846-4 0 9995 2 41923 86.3960 232.3676 0002423 85.9891 274.1582 14.34218915443865 0 IRIDIUM 108 1 41924U 17003H 25188.79711158 .00000067 00000-0 16884-4 0 9998 2 41924 86.3979 200.6487 0002125 91.4172 268.7267 14.34217899445767 0 IRIDIUM 112 1 41925U 17003J 25188.61660354 .00000194 00000-0 62087-4 0 9998 2 41925 86.3956 232.2307 0002353 93.9084 266.2381 14.34216537443886 0 IRIDIUM 111 1 41926U 17003K 25188.67368381 .00000081 00000-0 21750-4 0 9997 2 41926 86.3957 232.2697 0002249 88.4095 271.7359 14.34217795443945 0 IRIDIUM 113 1 42803U 17039A 25188.86295387 .00000015 00000-0 -17588-5 0 9990 2 42803 86.3974 106.1206 0002462 85.3376 274.8101 14.34217746421838 0 IRIDIUM 123 1 42804U 17039B 25187.92767278 .00000006 00000-0 -48843-5 0 9998 2 42804 86.3998 137.9752 0002135 75.8670 284.2763 14.34217606420463 0 IRIDIUM 120 1 42805U 17039C 25188.15892509 .00000039 00000-0 69487-5 0 9993 2 42805 86.3964 106.2419 0001895 80.6967 279.4443 14.34217781421726 0 IRIDIUM 115 1 42806U 17039D 25188.82162462 .00000275 00000-0 75799-4 0 9990 2 42806 86.4501 106.0465 0002237 65.3647 294.7787 14.43281287424591 0 IRIDIUM 118 1 42807U 17039E 25187.95938196 .00000048 00000-0 10177-4 0 9996 2 42807 86.3994 137.9613 0002481 86.9664 273.1816 14.34216339420466 0 IRIDIUM 117 1 42808U 17039F 25187.90864559 .00000016 00000-0 -14535-5 0 9992 2 42808 86.3994 137.9435 0002403 78.8133 281.3333 14.34217739420486 0 IRIDIUM 126 1 42809U 17039G 25187.93401602 -.00000004 00000-0 -84711-5 0 9993 2 42809 86.3999 137.9784 0002371 81.8931 278.2533 14.34217593420466 0 IRIDIUM 124 1 42810U 17039H 25188.61678749 .00000271 00000-0 74530-4 0 9990 2 42810 86.4471 74.4261 0001987 82.6324 277.5103 14.43279401425417 0 IRIDIUM 128 1 42811U 17039J 25188.48290099 .00000046 00000-0 94708-5 0 9994 2 42811 86.3999 169.2216 0001958 83.1146 277.0273 14.34217969420577 0 IRIDIUM 121 1 42812U 17039K 25188.37165441 .00000003 00000-0 -59596-5 0 9995 2 42812 86.3999 137.8210 0002058 86.2279 273.9152 14.34217544420408 0 IRIDIUM 133 1 42955U 17061A 25188.37507688 .00000067 00000-0 17037-4 0 9993 2 42955 86.4002 169.3757 0002301 85.3908 274.7550 14.34218355405357 0 IRIDIUM 100 1 42956U 17061B 25188.01988702 .00000202 00000-0 65236-4 0 9990 2 42956 86.3999 169.4508 0002293 82.4130 277.7326 14.34220248405305 0 IRIDIUM 122 1 42957U 17061C 25188.47655869 .00000166 00000-0 52114-4 0 9996 2 42957 86.3999 169.2592 0002351 85.7794 274.3671 14.34217706405372 0 IRIDIUM 129 1 42958U 17061D 25188.50193022 .00000130 00000-0 39520-4 0 9996 2 42958 86.4001 169.3119 0002660 92.5960 267.5541 14.34218316405398 0 IRIDIUM 119 1 42959U 17061E 25188.47021733 .00000075 00000-0 19639-4 0 9999 2 42959 86.4001 169.3195 0002537 83.8198 276.3287 14.34217937405407 0 IRIDIUM 107 1 42960U 17061F 25188.00086480 .00000104 00000-0 30229-4 0 9991 2 42960 86.4002 169.5345 0002353 75.3900 284.7556 14.34218272405340 0 IRIDIUM 132 1 42961U 17061G 25188.49558669 .00000070 00000-0 17932-4 0 9996 2 42961 86.4001 169.3100 0002258 84.2122 275.9331 14.34218086405410 0 IRIDIUM 136 1 42962U 17061H 25188.38776311 .00000033 00000-0 47723-5 0 9992 2 42962 86.4002 169.3601 0002462 82.4012 277.7463 14.34217930405416 0 IRIDIUM 139 1 42963U 17061J 25188.46387204 .00000211 00000-0 68163-4 0 9999 2 42963 86.4003 169.3845 0002277 80.8540 279.2913 14.34219312405435 0 IRIDIUM 125 1 42964U 17061K 25188.03257878 .00000061 00000-0 14734-4 0 9994 2 42964 86.4004 169.6190 0002784 77.3509 282.7997 14.34218014405385 0 IRIDIUM 135 1 43070U 17083A 25188.84392584 .00000003 00000-0 -58536-5 0 9996 2 43070 86.3970 105.9875 0002120 89.1502 270.9937 14.34217589394797 0 IRIDIUM 138 1 43071U 17083B 25188.17161231 -.00000002 00000-0 -76968-5 0 9995 2 43071 86.3958 105.9366 0002652 85.2306 274.9193 14.34217470394683 0 IRIDIUM 116 1 43072U 17083C 25188.13989729 .00000018 00000-0 -64449-6 0 9990 2 43072 86.3969 106.2719 0001941 82.0905 278.0511 14.34217681394719 0 IRIDIUM 130 1 43073U 17083D 25188.17795286 .00000026 00000-0 23931-5 0 9996 2 43073 86.3977 106.4977 0001864 74.7266 285.4136 14.34217662394667 0 IRIDIUM 151 1 43074U 17083E 25188.85026799 .00000041 00000-0 74419-5 0 9992 2 43074 86.3971 106.0252 0001962 84.5053 275.6367 14.34217674394789 0 IRIDIUM 134 1 43075U 17083F 25188.19063847 .00000012 00000-0 -28064-5 0 9999 2 43075 86.3971 106.3039 0001971 76.2235 283.9180 14.34217560394651 0 IRIDIUM 137 1 43076U 17083G 25188.13355420 .00000024 00000-0 16314-5 0 9992 2 43076 86.3974 106.4137 0001702 97.1854 262.9535 14.34217707394717 0 IRIDIUM 141 1 43077U 17083H 25188.12721659 .00000158 00000-0 49299-4 0 9998 2 43077 86.3969 106.2662 0002422 85.0554 275.0918 14.34215494394717 0 IRIDIUM 153 1 43078U 17083J 25188.14916110 .00000025 00000-0 20067-5 0 9995 2 43078 86.3948 74.7207 0002606 81.6426 278.5065 14.34217609395827 0 IRIDIUM 131 1 43079U 17083K 25188.18429660 .00000020 00000-0 86810-8 0 9995 2 43079 86.3975 106.4057 0002333 87.4834 272.6629 14.34217708394659 0 IRIDIUM 144 1 43249U 18030A 25188.15550232 .00000010 00000-0 -35008-5 0 9994 2 43249 86.3944 74.6547 0002007 83.5239 276.6185 14.34217470380683 0 IRIDIUM 149 1 43250U 18030B 25188.23161334 .00000197 00000-0 63404-4 0 9991 2 43250 86.3946 74.5941 0002074 84.1755 275.9677 14.34217767380719 0 IRIDIUM 157 1 43251U 18030C 25188.59948419 .00000033 00000-0 47033-5 0 9998 2 43251 86.3947 74.4859 0002301 90.2306 269.9153 14.34217767380746 0 IRIDIUM 140 1 43252U 18030D 25188.61851183 .00000026 00000-0 23662-5 0 9997 2 43252 86.3948 74.4915 0002113 80.3993 279.7441 14.34217594380808 0 IRIDIUM 145 1 43253U 18030E 25188.74536268 .00000038 00000-0 66809-5 0 9999 2 43253 86.3947 74.4111 0001778 81.2236 278.9161 14.34217737380755 0 IRIDIUM 146 1 43254U 18030F 25188.16818618 .00000052 00000-0 11526-4 0 9999 2 43254 86.3946 74.6660 0001786 80.4782 279.6615 14.34217991380688 0 IRIDIUM 148 1 43255U 18030G 25188.83416873 .00000186 00000-0 59200-4 0 9990 2 43255 86.3948 74.4254 0002050 89.1913 270.9518 14.34216359380824 0 IRIDIUM 142 1 43256U 18030H 25188.59314025 .00000038 00000-0 64982-5 0 9990 2 43256 86.3945 74.4276 0001663 81.7877 278.3507 14.34217723380749 0 IRIDIUM 150 1 43257U 18030J 25188.14281678 .00000039 00000-0 69318-5 0 9998 2 43257 86.3948 74.7211 0001949 80.6983 279.4433 14.34217754380708 0 IRIDIUM 143 1 43258U 18030K 25188.61216836 .00000025 00000-0 18205-5 0 9999 2 43258 86.3951 74.6040 0001744 78.6610 281.4781 14.34217637380708 0 IRIDIUM 161 1 43478U 18047C 25188.59472552 .00000245 00000-0 66925-4 0 9992 2 43478 86.4480 232.4091 0002610 93.3851 266.7649 14.43280735375436 0 IRIDIUM 152 1 43479U 18047D 25188.58488795 .00000033 00000-0 46968-5 0 9999 2 43479 86.3955 232.2741 0002446 90.9969 269.1507 14.34217684373096 0 IRIDIUM 147 1 43480U 18047E 25188.59123042 .00000041 00000-0 74577-5 0 9999 2 43480 86.3956 232.2704 0002356 96.0954 264.0511 14.34217580373093 0 IRIDIUM 110 1 43481U 18047F 25188.59757353 .00000018 00000-0 -58942-6 0 9992 2 43481 86.3961 232.3505 0002712 94.8981 265.2525 14.34217678373087 0 IRIDIUM 162 1 43482U 18047G 25188.65775185 .00000224 00000-0 60445-4 0 9990 2 43482 86.4479 232.2778 0002731 89.8121 270.3393 14.43282142375434 0 IRIDIUM 160 1 43569U 18061A 25188.54340915 .00000028 00000-0 28701-5 0 9991 2 43569 86.3986 200.7795 0002433 91.8029 268.3445 14.34217608363976 0 IRIDIUM 166 1 43570U 18061B 25188.56877833 .00000074 00000-0 19325-4 0 9991 2 43570 86.3979 200.7239 0002052 88.1245 272.0186 14.34217939364005 0 IRIDIUM 158 1 43571U 18061C 25188.53706512 .00000011 00000-0 -29934-5 0 9994 2 43571 86.3984 200.7472 0002285 85.7709 274.3747 14.34217168363963 0 IRIDIUM 165 1 43572U 18061D 25188.56244202 .00000122 00000-0 36414-4 0 9993 2 43572 86.3982 200.7762 0002179 91.7441 268.4004 14.34216401363998 0 IRIDIUM 155 1 43573U 18061E 25188.52438056 .00000010 00000-0 -36207-5 0 9990 2 43573 86.3983 200.6785 0002192 82.0531 278.0914 14.34217470363952 0 IRIDIUM 154 1 43574U 18061F 25188.57512128 .00000039 00000-0 69175-5 0 9999 2 43574 86.3981 200.7735 0002305 90.0701 270.0759 14.34217718364013 0 IRIDIUM 163 1 43575U 18061G 25188.76539998 -.00000008 00000-0 -98706-5 0 9995 2 43575 86.3983 200.6204 0002377 88.4394 271.7074 14.34217298364015 0 IRIDIUM 156 1 43576U 18061H 25188.74002922 .00000032 00000-0 43022-5 0 9992 2 43576 86.3980 200.6380 0002145 82.1938 277.9501 14.34217598363998 0 IRIDIUM 164 1 43577U 18061J 25188.58146391 .00000104 00000-0 30163-4 0 9995 2 43577 86.3981 200.7389 0002105 93.7957 266.3480 14.34218037364027 0 IRIDIUM 159 1 43578U 18061K 25188.54975139 .00000046 00000-0 94026-5 0 9996 2 43578 86.3978 200.6961 0002392 95.6231 264.5237 14.34217780363981 0 IRIDIUM 180 1 43922U 19002A 25187.92133075 .00000010 00000-0 -36573-5 0 9996 2 43922 86.3997 137.9408 0002276 84.2477 275.8978 14.34217581339541 0 IRIDIUM 176 1 43923U 19002B 25187.95100688 .00000658 00000-0 10051-3 0 9992 2 43923 86.6120 137.9197 0002918 74.7311 285.4229 14.72255868348450 0 IRIDIUM 168 1 43924U 19002C 25188.40336715 .00000170 00000-0 53754-4 0 9993 2 43924 86.4001 137.8073 0002215 83.4470 276.6978 14.34218101339553 0 IRIDIUM 173 1 43925U 19002D 25188.80929395 -.00000041 00000-0 -21785-4 0 9998 2 43925 86.3997 137.5408 0002330 81.5701 278.5759 14.34217222339607 0 IRIDIUM 169 1 43926U 19002E 25188.46427811 .00000255 00000-0 76812-4 0 9993 2 43926 86.4256 169.2681 0002988 58.8858 301.2633 14.38612113340666 0 IRIDIUM 172 1 43927U 19002F 25187.96572902 .00000018 00000-0 -70638-6 0 9990 2 43927 86.3997 137.8997 0002403 88.2127 271.9344 14.34217689339482 0 IRIDIUM 175 1 43928U 19002G 25188.82958643 .00000688 00000-0 10516-3 0 9995 2 43928 86.1494 88.8929 0001641 69.3535 290.7857 14.72241651348575 0 IRIDIUM 171 1 43929U 19002H 25188.01646870 .00000002 00000-0 -64161-5 0 9991 2 43929 86.4007 138.1465 0001814 84.7896 275.3507 14.34217517339489 0 IRIDIUM 170 1 43930U 19002J 25188.22905103 .00000718 00000-0 10999-3 0 9994 2 43930 86.6121 137.8081 0002538 78.5109 281.6393 14.72257249348506 0 IRIDIUM 167 1 43931U 19002K 25187.94035743 -.00000011 00000-0 -10898-4 0 9994 2 43931 86.3998 137.9299 0001830 75.7501 284.3898 14.34217458339479 0 IRIDIUM 181 1 56726U 23068S 25188.74736783 .00000154 00000-0 39714-4 0 9992 2 56726 86.4518 200.6498 0001927 101.8665 258.2752 14.43309506112757 0 IRIDIUM 177 1 56727U 23068T 25187.87836413 .00000935 00000-0 11957-3 0 9992 2 56727 86.1990 132.7859 0002293 86.0826 274.0657 14.80231637115286 0 IRIDIUM 174 1 56728U 23068U 25187.87687127 .00000719 00000-0 11008-3 0 9996 2 56728 86.6128 138.0673 0003203 85.9032 274.2551 14.72248761115212 0 IRIDIUM 178 1 56729U 23068V 25188.47587745 .00000932 00000-0 11916-3 0 9994 2 56729 86.6577 169.3681 0002794 88.2496 271.9046 14.80237096115379 0 IRIDIUM 179 1 56730U 23068W 25188.47050825 .00000409 00000-0 50305-4 0 9995 2 56730 86.6814 177.3010 0002568 86.9680 273.1835 14.80235024115378